Location: Newark
(0.0000°N, 0.0000°E)
Time: 08:45:33
(UTC+00:00)

N. Korean satellite - Visible Passes

Search period start: 20 September 2020 00:00
Search period end: 30 September 2020 00:00
Orbit: 455 x 503 km, 97.2° (Epoch: 19 September)

Date Brightness Start Highest point End Pass type
(mag) Time Alt. Az. Time Alt. Az. Time Alt. Az.
20 Sep 9.3 04:36:38 10° NE 04:39:23 21° E 04:42:06 10° SSE visible
22 Sep 6.4 05:17:04 10° N 05:20:35 70° WNW 05:24:05 10° SSW visible
23 Sep 8.1 04:51:21 10° NNE 04:54:39 37° E 04:57:55 10° S visible
24 Sep 9.8 04:26:46 10° ENE 04:28:42 14° E 04:30:37 10° SE visible
26 Sep 6.7 05:06:24 10° NNE 05:09:54 74° E 05:13:22 10° S visible
27 Sep 9.0 04:41:02 10° NE 04:43:57 25° E 04:46:49 10° SSE visible
29 Sep 6.5 05:21:42 10° N 05:25:08 55° W 05:28:31 10° SSW visible
